Cut Bank, MT

2:46 PM MST on November 12, 2019 (GMT -0700)
Cut Bank Municipal

Weather History for KCTB - September, 2019

Change the Weather History Date:

Sunday, September 15, 2019

  Actual Average Record
Temperature  
Mean Temperature 66 °F 54 °F  
Max Temperature 84 °F 68 °F 91 °F (2000)
Min Temperature 46 °F 40 °F 21 °F (1912)
Degree Days  
Heating Degree Days 0 11  
Month to date heating degree days 94 135  
Since 1 July heating degree days 267 329  
Cooling Degree Days 0 0  
Month to date cooling degree days 2 6  
Year to date cooling degree days 106 159  
Growing Degree Days 16 (Base 50)    
Moisture  
Dew Point 39 °F    
Average Humidity 44    
Maximum Humidity 74    
Minimum Humidity 17    
Precipitation  
Precipitation 0.00 in 0.04 in 0.78 in (1993)
Month to date precipitation 0.49 0.67  
Year to date precipitation 9.32 9.33  
Snow  
Snow - - - ()
Snow Depth 0.00 in    
Sea Level Pressure  
Sea Level Pressure 29.69 in    
Wind  
Wind Speed 7 mph ()    
Max Wind Speed 23 mph    
Max Gust Speed 28 mph    
Visibility 10.0 miles    
Events      
T = Trace of Precipitation, MM = Missing Value Source: Averaged Metar Reports

Daily Weather History Graph

Daily Weather History Graph

Search for Another Location

Airport or City:

Astronomy

Sep. 15, 2019 Rise Set
Actual Time 7:06 AM MDT 7:42 PM MDT
Civil Twilight 6:34 AM MDT 8:14 PM MDT
Nautical Twilight 5:56 AM MDT 8:51 PM MDT
Astronomical Twilight 5:17 AM MDT 9:30 PM MDT
Moon 8:47 PM MDT (9/15) 8:22 AM MDT (9/15)
Length of Visible Light 13h 39m
Length of Day
12h 36m
Full, 98% of the Moon is Illuminated
Sep 15
Full
Sep 21
Last Quarter
Sep 28
New
Oct 5
First Quarter
Oct 13
Full

Hourly Weather History & Observations

Time (MDT) Temp. Dew Point Humidity Pressure Visibility Wind Dir Wind Speed Gust Speed Precip Events Conditions
12:56 AM 55.9 °F 41.0 °F 57% 29.80 in 10.0 mi WSW 8.1 mph - N/A   Clear
1:56 AM 55.9 °F 41.0 °F 57% 29.78 in 10.0 mi WSW 6.9 mph - N/A   Clear
2:56 AM 55.9 °F 39.9 °F 55% 29.77 in 10.0 mi WSW 10.4 mph - N/A   Clear
3:56 AM 55.0 °F 39.0 °F 55% 29.76 in 10.0 mi ESE 5.8 mph - N/A   Clear
4:56 AM 48.9 °F 39.0 °F 69% 29.76 in 10.0 mi ESE 4.6 mph - N/A   Clear
5:56 AM 51.1 °F 39.9 °F 66% 29.75 in 10.0 mi SE 4.6 mph - N/A   Clear
6:56 AM 46.9 °F 39.0 °F 74% 29.75 in 10.0 mi Calm Calm - N/A   Clear
7:56 AM 48.9 °F 41.0 °F 74% 29.76 in 10.0 mi Calm Calm - N/A   Clear
8:56 AM 60.1 °F 42.1 °F 51% 29.73 in 10.0 mi South 3.5 mph - N/A   Clear
9:56 AM 64.9 °F 44.1 °F 47% 29.73 in 10.0 mi SE 8.1 mph - N/A   Clear
10:56 AM 72.0 °F 39.9 °F 31% 29.71 in 10.0 mi Calm Calm - N/A   Clear
11:56 AM 75.9 °F 37.9 °F 25% 29.68 in 10.0 mi Calm Calm - N/A   Clear
12:56 PM 80.1 °F 37.0 °F 21% 29.66 in 10.0 mi South 12.7 mph 20.7 mph N/A   Clear
1:56 PM 80.1 °F 37.0 °F 21% 29.65 in 10.0 mi SSE 11.5 mph 16.1 mph N/A   Clear
2:56 PM 84.0 °F 35.1 °F 17% 29.62 in 10.0 mi WSW 12.7 mph 25.3 mph N/A   Clear
3:56 PM 82.9 °F 34.0 °F 17% 29.60 in 10.0 mi WSW 19.6 mph 27.6 mph N/A   Clear
4:56 PM 82.9 °F 34.0 °F 17% 29.61 in 10.0 mi WSW 18.4 mph 24.2 mph N/A   Clear
5:56 PM 82.0 °F 35.1 °F 18% 29.60 in 10.0 mi West 13.8 mph - N/A   Clear
6:56 PM 73.9 °F 39.9 °F 29% 29.62 in 10.0 mi WNW 11.5 mph - N/A   Clear
7:56 PM 64.9 °F 39.0 °F 39% 29.65 in 10.0 mi WNW 9.2 mph - N/A   Clear
8:56 PM 64.0 °F 39.0 °F 40% 29.63 in 10.0 mi North 6.9 mph - N/A   Clear
9:56 PM 57.0 °F 37.9 °F 49% 29.64 in 10.0 mi North 8.1 mph - N/A   Clear
10:56 PM 54.0 °F 39.0 °F 57% 29.65 in 10.0 mi North 4.6 mph - N/A   Clear
11:56 PM 53.1 °F 39.0 °F 59% 29.64 in 10.0 mi NW 10.4 mph - N/A   Clear